Weather History for Exeter, United Kingdom

Change the Weather History Date:

Saturday, February 22, 2014

  Actual Average Record
Temperature  
Mean Temperature 42 °F -  
Max Temperature 51 °F 49 °F 55 °F (2002)
Min Temperature 34 °F 37 °F 28 °F (2000)
Degree Days  
Heating Degree Days 22    
Moisture  
Dew Point 40 °F    
Average Humidity 77    
Maximum Humidity 93    
Minimum Humidity 52    
Precipitation  
Precipitation 0.03 in - - ()
Sea Level Pressure  
Sea Level Pressure 29.81 in    
Wind  
Wind Speed 11 mph ()    
Max Wind Speed 21 mph    
Max Gust Speed -    
Visibility 6.2 miles    
Events Rain    
Averages and records for this station are not official NWS values.
T = Trace of Precipitation, MM = Missing Value Source: Averaged Metar Reports

Daily Weather History Graph

Daily Weather History Graph

Search for Another Location

Airport:

Trip Planner

Search our weather history database for the weather conditions in past years. The results will help you decide how hot, cold, wet, or windy it might be!

Date:

Astronomy

Feb. 22, 2014 Rise Set
Actual Time 7:12 AM GMT 5:42 PM GMT
Civil Twilight 6:39 AM GMT 6:15 PM GMT
Nautical Twilight 6:01 AM GMT 6:54 PM GMT
Astronomical Twilight 5:23 AM GMT 7:32 PM GMT
Moon 1:06 AM GMT (2/22) 10:26 AM GMT (2/22)
Length of Visible Light 11h 36m
Length of Day
10h 30m
Waning Gibbous, 52% of the Moon is Illuminated
Feb 22
Waning Gibbous
Feb 22
Last Quarter
Mar 1
New
Mar 8
First Quarter
Mar 16
Full

Hourly Weather History & Observations

Time (GMT) Temp. Windchill Dew Point Humidity Pressure Visibility Wind Dir Wind Speed Gust Speed Precip Events Conditions
12:00 AM 40 °F - 37 °F 83%  in - Calm Calm - -  
12:20 AM 41.0 °F 35.2 °F 37.4 °F 87% 29.68 in 6.2 mi SW 9.2 mph - N/A   Partly Cloudy
12:50 AM 39.2 °F 33.0 °F 37.4 °F 93% 29.68 in 6.2 mi SW 9.2 mph - N/A   Partly Cloudy
1:00 AM 40 °F - 36 °F 82%  in - Calm Calm - -  
1:20 AM 41.0 °F 35.2 °F 37.4 °F 87% 29.68 in - SSW 9.2 mph - N/A   Clear
2:00 AM 36 °F - 33 °F 84%  in - Calm Calm - -  
3:00 AM 36 °F - 34 °F 91%  in - Calm Calm - -  
4:00 AM 38 °F - 36 °F 88%  in - Calm Calm - -  
5:00 AM 37 °F - 35 °F 88%  in - Calm Calm - -  
6:00 AM 38 °F - 35 °F 86%  in - Calm Calm - -  
6:20 AM 41.0 °F 35.2 °F 37.4 °F 87% 29.68 in 6.2 mi SSW 9.2 mph - N/A   Partly Cloudy
6:50 AM 41.0 °F 35.2 °F 37.4 °F 87% 29.68 in 6.2 mi SSW 9.2 mph - N/A   Partly Cloudy
7:00 AM 37 °F - 35 °F 87%  in - Calm Calm - -  
7:20 AM 41.0 °F 35.8 °F 37.4 °F 87% 29.77 in 6.2 mi SSW 8.1 mph - N/A   Partly Cloudy
7:50 AM 39.2 °F 34.2 °F 35.6 °F 87% 29.77 in 6.2 mi SSW 6.9 mph - N/A   Partly Cloudy
8:00 AM 40 °F - 36 °F 82%  in - Calm Calm - -  
8:20 AM 41.0 °F 36.4 °F 37.4 °F 87% 29.80 in 6.2 mi SSW 6.9 mph - N/A   Partly Cloudy
8:50 AM 41.0 °F 36.4 °F 39.2 °F 93% 29.80 in 6.2 mi SSW 6.9 mph - N/A   Partly Cloudy
9:00 AM 44 °F - 38 °F 73%  in - Calm Calm - -  
9:20 AM 44.6 °F 40.7 °F 39.2 °F 81% 29.80 in 6.2 mi SW 6.9 mph - N/A   Partly Cloudy
9:50 AM 46.4 °F 42.9 °F 39.2 °F 76% 29.83 in - SSW 6.9 mph - N/A   Clear
10:00 AM 47 °F - 39 °F 65%  in - Calm Calm - -  
10:20 AM 48.2 °F - 41.0 °F 76% 29.83 in 6.2 mi South 9.2 mph - N/A   Partly Cloudy
10:50 AM 48.2 °F - 41.0 °F 76% 29.83 in 6.2 mi SSW 9.2 mph - N/A   Partly Cloudy
11:00 AM 50 °F - 41 °F 63%  in - Calm Calm - -  
11:20 AM 50.0 °F - 39.2 °F 66% 29.83 in 6.2 mi SW 12.7 mph - N/A   Scattered Clouds
11:50 AM 48.2 °F - 39.2 °F 71% 29.86 in 6.2 mi WSW 10.4 mph - N/A   Scattered Clouds
12:00 PM 49 °F - 38 °F 57%  in - Calm Calm - -  
12:20 PM 50.0 °F - 39.2 °F 66% 29.86 in 6.2 mi WSW 10.4 mph - N/A   Scattered Clouds
12:50 PM 50.0 °F - 35.6 °F 58% 29.86 in 6.2 mi WSW 13.8 mph - N/A   Scattered Clouds
1:00 PM 49 °F - 37 °F 52%  in - Calm Calm - -  
1:20 PM 50.0 °F - 37.4 °F 62% 29.86 in 6.2 mi WSW 11.5 mph - N/A   Scattered Clouds
1:50 PM 50.0 °F - 39.2 °F 66% 29.86 in 6.2 mi SW 17.3 mph - N/A   Scattered Clouds
2:00 PM 50 °F - 39 °F 55%  in - Calm Calm - -  
2:20 PM 50.0 °F - 39.2 °F 66% 29.83 in 6.2 mi SSW 15.0 mph - N/A   Partly Cloudy
2:50 PM 50.0 °F - 39.2 °F 66% 29.83 in 6.2 mi SW 17.3 mph - N/A   Scattered Clouds
3:00 PM 50 °F - 38 °F 54%  in - Calm Calm - -  
3:20 PM 50.0 °F - 39.2 °F 66% 29.86 in 6.2 mi SW 15.0 mph - N/A   Scattered Clouds
3:50 PM 50.0 °F - 39.2 °F 66% 29.86 in 6.2 mi SW 12.7 mph - N/A   Scattered Clouds
4:00 PM 49 °F - 39 °F 59%  in - Calm Calm - -  
4:20 PM 50.0 °F - 39.2 °F 66% 29.86 in 6.2 mi SW 12.7 mph - N/A   Scattered Clouds
4:50 PM 48.2 °F - 39.2 °F 71% 29.83 in 6.2 mi SW 13.8 mph - N/A   Scattered Clouds
5:00 PM 49 °F - 39 °F 60%  in - Calm Calm - -  
5:20 PM 48.2 °F - 41.0 °F 76% 29.83 in 6.2 mi SSW 17.3 mph - N/A   Scattered Clouds
5:50 PM 48.2 °F - 41.0 °F 76% 29.83 in 6.2 mi SW 18.4 mph - N/A   Scattered Clouds
6:00 PM 48 °F - 41 °F 69%  in - Calm Calm - -  
6:20 PM 48.2 °F - 41.0 °F 76% 29.83 in 6.2 mi SSW 18.4 mph - N/A   Scattered Clouds
6:50 PM 48.2 °F - 41.0 °F 76% 29.83 in 6.2 mi SSW 16.1 mph - N/A   Scattered Clouds
7:00 PM 49 °F - 41 °F 66%  in - Calm Calm - -  
7:20 PM 48.2 °F - 41.0 °F 76% 29.83 in 6.2 mi SSW 16.1 mph - N/A   Scattered Clouds
7:50 PM 48.2 °F - 42.8 °F 82% 29.83 in 6.2 mi SSW 15.0 mph - N/A   Scattered Clouds
8:00 PM 49 °F - 42 °F 69%  in - Calm Calm - -  
8:20 PM 48.2 °F - 42.8 °F 82% 29.83 in 6.2 mi SSW 13.8 mph - N/A   Mostly Cloudy
8:50 PM 48.2 °F - 44.6 °F 87% 29.83 in 6.2 mi SSW 16.1 mph - N/A   Mostly Cloudy
9:00 PM 49 °F - 44 °F 76%  in - Calm Calm - -  
9:20 PM 50.0 °F - 44.6 °F 82% 29.83 in 6.2 mi SSW 18.4 mph - N/A Rain Light Rain
9:50 PM 48.2 °F - 46.4 °F 93% 29.83 in 6.2 mi SSW 20.7 mph - N/A Rain Light Rain
10:00 PM 49 °F - 46 °F 84%  in - Calm Calm - -  
10:20 PM 48.2 °F - 46.4 °F 93% 29.80 in 5.6 mi SSW 19.6 mph - N/A Rain Light Rain
10:50 PM 48.2 °F - 46.4 °F 93% 29.80 in 6.2 mi SSW 17.3 mph - N/A   Mostly Cloudy
11:00 PM 50 °F - 47 °F 84%  in - Calm Calm - -  
11:20 PM 50.0 °F - 46.4 °F 87% 29.80 in 6.2 mi SSW 16.1 mph - N/A   Mostly Cloudy
11:50 PM 48.2 °F - 46.4 °F 93% 29.77 in 6.2 mi SSW 19.6 mph - N/A Rain Light Rain